Weather History for KVAY - April, 2014

Change the Weather History Date:

Monday, April 7, 2014

  Actual Average (KWRI) Record (KWRI)
Temperature  
Mean Temperature 42 °F -  
Max Temperature 51 °F 57 °F 77 °F (2005)
Min Temperature 32 °F 37 °F 24 °F (2002)
Degree Days  
Heating Degree Days 24    
Moisture  
Dew Point 42 °F    
Average Humidity 89    
Maximum Humidity 97    
Minimum Humidity 68    
Precipitation  
Precipitation 0.44 in - - ()
Sea Level Pressure  
Sea Level Pressure 29.95 in    
Wind  
Wind Speed 4 mph (East)    
Max Wind Speed 14 mph    
Max Gust Speed 22 mph    
Visibility 4 miles    
Events Rain    
Averages and records for this station are not official NWS values.
T = Trace of Precipitation, MM = Missing Value Source: NWS Daily Summary

Daily Weather History Graph

Daily Weather History Graph

Search for Another Location

Airport or City:

Trip Planner

Search our weather history database for the weather conditions in past years. The results will help you decide how hot, cold, wet, or windy it might be!

Date:

Astronomy

Apr. 07, 2014 Rise Set
Actual Time 6:33 AM EDT 7:29 PM EDT
Civil Twilight 6:06 AM EDT 7:57 PM EDT
Nautical Twilight 5:33 AM EDT 8:30 PM EDT
Astronomical Twilight 4:59 AM EDT 9:04 PM EDT
Moon 12:27 PM EDT (4/7) 2:05 AM EDT (4/7)
Length of Visible Light 13h 50m
Length of Day
12h 55m
First Quarter, 53% of the Moon is Illuminated
Apr 7
First Quarter
Apr 15
Full
Apr 22
Last Quarter
Apr 29
New
May 6
First Quarter

Hourly Weather History & Observations

Time (EDT) Temp. Windchill Dew Point Humidity Pressure Visibility Wind Dir Wind Speed Gust Speed Precip Events Conditions
12:54 AM 37.9 °F - 32.0 °F 79% 30.22 in 10.0 mi Calm Calm - N/A   Clear
1:54 AM 36.0 °F - 30.9 °F 82% 30.18 in 10.0 mi Calm Calm - N/A   Clear
2:54 AM 34.0 °F - 30.9 °F 89% 30.18 in 10.0 mi Calm Calm - N/A   Clear
3:54 AM 33.1 °F - 30.0 °F 89% 30.17 in 10.0 mi Calm Calm - N/A   Clear
4:54 AM 33.1 °F - 30.9 °F 92% 30.17 in 5.0 mi Calm Calm - N/A   Clear
5:54 AM 33.1 °F - 30.9 °F 92% 30.17 in 2.5 mi Calm Calm - N/A   Clear
6:43 AM 32.0 °F - 30.0 °F 92% 30.17 in 1.2 mi Calm Calm - N/A   Clear
6:51 AM 33.8 °F - 30.2 °F 87% 30.17 in 1.0 mi Calm Calm - N/A   Clear
6:54 AM 33.1 °F - 30.0 °F 89% 30.17 in 1.0 mi Calm Calm - N/A   Clear
7:13 AM 33.1 °F - 30.9 °F 92% 30.18 in 0.8 mi Calm Calm - N/A   Clear
7:40 AM 34.0 °F - 32.0 °F 92% 30.19 in 1.0 mi Calm Calm - N/A   Clear
7:54 AM 35.1 °F - 33.1 °F 92% 30.20 in 1.0 mi Calm Calm - N/A   Clear
8:14 AM 37.0 °F - 34.0 °F 89% 30.20 in 1.2 mi Calm Calm - N/A   Clear
8:45 AM 37.9 °F - 34.0 °F 86% 30.20 in 2.0 mi Calm Calm - N/A   Clear
8:54 AM 37.9 °F 35.5 °F 35.1 °F 89% 30.20 in 2.0 mi Variable 3.5 mph - N/A   Clear
9:07 AM 39.0 °F 36.8 °F 36.0 °F 89% 30.19 in 4.0 mi ENE 3.5 mph - N/A   Clear
9:54 AM 42.1 °F 39.2 °F 36.0 °F 79% 30.18 in 10.0 mi East 4.6 mph - N/A   Mostly Cloudy
10:54 AM 46.9 °F - 37.0 °F 68% 30.15 in 10.0 mi SE 5.8 mph - N/A   Overcast
11:54 AM 48.9 °F - 39.0 °F 69% 30.14 in 10.0 mi East 6.9 mph - 0.00 in Rain Light Rain
12:54 PM 51.1 °F - 41.0 °F 68% 30.09 in 10.0 mi ESE 9.2 mph - 0.00 in Rain Light Rain
1:51 PM 50.0 °F - 44.6 °F 82% 30.04 in 8.0 mi East 9.2 mph - 0.01 in Rain Light Rain
1:54 PM 50.0 °F - 43.0 °F 77% 30.04 in 8.0 mi East 11.5 mph 17.3 mph 0.01 in Rain Light Rain
2:54 PM 48.9 °F - 43.0 °F 80% 29.99 in 10.0 mi East 11.5 mph 18.4 mph 0.00 in   Overcast
3:32 PM 48.0 °F - 43.0 °F 83% 29.90 in 10.0 mi ESE 13.8 mph 21.9 mph 0.01 in   Overcast
4:54 PM 51.1 °F - 46.9 °F 86% 29.89 in 10.0 mi ENE 5.8 mph - N/A   Overcast
5:11 PM 51.1 °F - 48.0 °F 89% 29.89 in 1.8 mi East 8.1 mph - 0.02 in Rain Rain
5:41 PM 51.1 °F - 48.9 °F 92% 29.86 in 1.2 mi ENE 5.8 mph - 0.11 in Rain Rain
5:54 PM 50.0 °F - 48.0 °F 93% 29.86 in 1.0 mi Variable 3.5 mph - 0.14 in Rain Rain
6:02 PM 50.0 °F - 48.9 °F 96% 29.85 in 0.8 mi ENE 5.8 mph - 0.03 in Rain Rain
6:13 PM 50.0 °F - 48.9 °F 96% 29.85 in 1.0 mi ENE 5.8 mph - 0.07 in Rain Rain
6:19 PM 50.0 °F - 48.0 °F 93% 29.85 in 1.8 mi East 6.9 mph - 0.07 in Rain Light Rain
6:21 PM 50.0 °F - 48.0 °F 93% 29.85 in 2.0 mi East 8.1 mph - 0.08 in Rain Light Rain
6:23 PM 50.0 °F - 48.0 °F 93% 29.84 in 1.5 mi East 10.4 mph - 0.09 in Rain Light Rain
6:27 PM 50.0 °F - 48.0 °F 93% 29.84 in 1.0 mi East 8.1 mph - 0.12 in Rain Heavy Rain
6:34 PM 50.0 °F - 48.0 °F 93% 29.84 in 0.8 mi East 5.8 mph - 0.15 in Rain Rain
6:42 PM 50.0 °F - 48.9 °F 96% 29.84 in 1.0 mi East 8.1 mph - 0.17 in Rain Rain
6:54 PM 50.0 °F - 48.0 °F 93% 29.84 in 1.0 mi ENE 6.9 mph - 0.21 in Rain Rain
7:13 PM 48.9 °F - 48.0 °F 97% 29.81 in 1.2 mi East 9.2 mph - 0.04 in Rain Rain
7:32 PM 48.9 °F - 46.9 °F 93% 29.79 in 2.0 mi East 8.1 mph - 0.07 in Rain Light Rain
7:45 PM 48.9 °F - 46.9 °F 93% 29.77 in 4.0 mi East 11.5 mph - 0.07 in Rain Light Rain
7:54 PM 48.9 °F - 46.9 °F 93% 29.78 in 6.0 mi East 9.2 mph - 0.07 in Rain Light Rain
8:08 PM 48.9 °F - 46.9 °F 93% 29.77 in 5.0 mi East 8.1 mph - 0.00 in Rain Light Rain
8:54 PM 50.0 °F - 48.0 °F 93% 29.76 in 3.0 mi East 6.9 mph - 0.01 in Rain Light Rain
8:59 PM 50.0 °F - 48.0 °F 93% 29.75 in 2.5 mi East 6.9 mph - 0.00 in   Overcast
9:10 PM 50.0 °F - 48.0 °F 93% 29.72 in 3.0 mi ENE 8.1 mph - 0.00 in   Overcast
9:21 PM 50.0 °F - 48.0 °F 93% 29.73 in 2.5 mi East 6.9 mph - 0.00 in   Overcast
9:37 PM 50.0 °F - 48.0 °F 93% 29.74 in 3.0 mi East 6.9 mph - 0.00 in   Overcast
9:44 PM 50.0 °F - 48.0 °F 93% 29.74 in 2.5 mi East 8.1 mph - 0.00 in   Overcast
9:54 PM 48.9 °F - 48.0 °F 97% 29.73 in 1.8 mi ENE 8.1 mph - 0.00 in   Overcast
10:25 PM 48.9 °F - 48.0 °F 97% 29.72 in 2.0 mi East 5.8 mph - N/A   Overcast
10:54 PM 48.0 °F - 46.9 °F 96% 29.72 in 2.0 mi East 4.6 mph - N/A   Overcast
11:22 PM 48.0 °F - 46.9 °F 96% 29.70 in 1.8 mi ENE 3.5 mph - N/A   Overcast
11:51 PM 48.2 °F - 46.4 °F 93% 29.68 in 1.0 mi ENE 5.8 mph - N/A   Mist
11:54 PM 48.0 °F - 46.0 °F 93% 29.68 in 1.0 mi ENE 4.6 mph - N/A   Mist